Location: Newark
(13.8625°N, 100.5144°E)
Time: 12:30:41
(UTC+00:00)

Envisat - Pass Details

Date: 05 April 2020
Orbit: 764 x 766 km, 98.1° (Epoch: 02 June)

Event Time Altitude Azimuth Distance (km) Brightness Sun altitude
Rises 11:41:11 0° 182° (S) 3,219 6.2 -3.5°
Reaches altitude 10° 11:43:35 10° 188° (S) 2,294 5.5 -4.0°
Maximum altitude 11:48:22 43° 259° (W) 1,062 4.4 -5.2°
Drops below altitude 10° 11:53:10 10° 331° (NNW) 2,297 6.0 -6.3°
Sets 11:55:34 0° 337° (NNW) 3,223 6.7 -6.9°
